Regional Weather Roundup
Issued by NWS

Home | Current Version | Previous Version | Graphics & Text | Print | Product List | Glossary On
Versions: 1 2 3 4 5 6 7 8 9 10 11 12 13 14 15 16 17 18 19 20 21 22 23 24 25 26 27 28 29 30 31 32 33 34 35 36 37 38 39 40 41 42 43 44 45 46 47 48 49 50
000
ASUS43 KLMK 280302
RWRKY
KENTUCKY REGIONAL WEATHER ROUNDUP
NATIONAL WEATHER SERVICE LOUISVILLE KY
1100 PM EDT WED JUL 27 2016

NOTE "FAIR" INDICATES FEW OR NO CLOUDS BELOW 12,000 FEET
WITH NO SIGNIFICANT WEATHER AND/OR OBSTRUCTIONS TO VISIBILITY.

KYZ001>023-026-027-061>063-070>075-280400-
WESTERN AND SOUTH CENTRAL KENTUCKY

CITY           SKY/WX    TMP DP  RH WIND       PRES   REMARKS
PADUCAH        TSTM      73  69  87 S7        29.96R FOG
HENDERSON      NOT AVBL
OWENSBORO      LGT RAIN  75  75 100 W10       29.95R
HOPKINSVILLE   DRIZZLE   74  72  95 N9        29.96R
BOWLING GREEN  CLOUDY    77  73  87 N5        29.95R
GLASGOW        NOT AVBL
$$

KYZ024-025-028>034-038-045-046-053-280400-
NORTH CENTRAL KENTUCKY

CITY           SKY/WX    TMP DP  RH WIND       PRES   REMARKS
LOUISVILLE/SDF CLOUDY    80  72  76 E5        29.93F THUNDER
LOUISVILLE/LOU CLOUDY    77  73  87 CALM      29.94F
FORT KNOX      TSTM      79  75  89 W7        29.95R
$$

KYZ035>037-039>044-047>052-055>060-089>105-280400-
NORTHEAST KENTUCKY

CITY           SKY/WX    TMP DP  RH WIND       PRES   REMARKS
LEXINGTON      MOCLDY    82  72  71 E6        29.97S
COVINGTON      CLOUDY    80  72  76 CALM      29.96R
FRANKFORT      CLOUDY    79  74  84 CALM      29.94F
$$

KYZ054-064>069-076>088-106>120-280400-
SOUTHEAST KENTUCKY

CITY           SKY/WX    TMP DP  RH WIND       PRES   REMARKS
JACKSON        LGT RAIN  72  70  93 VRB3      30.03R FOG
LONDON         CLOUDY    76  70  82 E9        30.02F THUNDER
SOMERSET       LGT RAIN  73  72  94 SE3       30.01S
MIDDLESBORO    TSTM      76  72  87 S21G32    30.05R
MONTICELLO     CLOUDY   N/A N/A N/A SE9       30.01R
$$




USA.gov is the U.S. government's official web portal to all federal, state and local government web resources and services.